Location: Bonac
(42.8765°N, 0.9753°E)
Time: 06:25:24
(UTC+00:00)

RESURS DK-1 - Pass Details

Date: 12 January 2026
Orbit: 525 x 531 km, 69.9° (Epoch: 10 February)

Event Time Altitude Azimuth Distance (km) Brightness Sun altitude
Rises 18:58:56 0° 201° (SSW) 2,659 6.2 -24.2°
Reaches altitude 10° 19:01:06 10° 199° (SSW) 1,775 5.2 -24.6°
Enters shadow 19:03:20 33° 194° (SSW) 917 3.5 -25.0°
